Theta_e
301 301 301 301 301 302 302 302 302 300 301 302 303 307 313 317 318 317 314 311 316 318 318 319 318 318 319 320 321 321 322 323 322 322 320 321 322 326 329 332 331 333 332 334 335 334 335 333 334 334 333 332 333 330
301 302 301 301 301 301 301 302 302 302 301 301 303 306 308 315 315 309 312 314 316 318 318 318 317 316 317 319 319 319 320 321 322 323 324 324 325 328 328 332 332 333 332 332 330 330 330 333 334 334 333 331 331 332
301 301 302 301 301 301 301 301 302 302 301 302 304 308 312 314 313 310 308 310 316 316 316 316 318 318 317 316 315 317 318 319 320 321 323 322 324 328 329 330 331 328 326 327 332 330 333 333 333 333 332 330 330 330
301 301 302 302 301 301 301 301 301 302 302 302 306 310 312 313 314 306 306 310 315 317 317 317 318 320 320 320 318 315 316 316 317 318 320 322 322 321 322 322 324 329 328 327 325 323 328 332 333 330 327 329 330 326
301 301 302 302 301 301 301 301 301 301 302 303 306 311 312 313 307 305 306 308 315 315 317 316 316 319 320 318 318 318 318 318 318 319 320 320 319 319 319 320 321 328 330 328 327 326 331 332 332 328 325 324 326 326
301 301 301 301 301 300 301 301 301 302 302 304 309 313 313 311 305 306 312 308 308 314 315 316 316 316 318 319 319 318 317 319 318 319 320 320 320 320 321 320 321 323 323 325 326 326 329 327 329 327 325 325 327 327
301 301 301 301 300 300 301 301 301 302 303 306 308 311 311 308 303 310 315 315 314 315 315 317 320 317 318 319 317 316 316 316 317 319 319 319 319 319 320 320 320 320 322 323 324 329 328 329 329 326 326 325 325 327
302 301 301 302 301 300 301 301 301 302 305 309 310 311 308 304 305 309 313 313 315 314 315 318 319 319 319 318 317 317 318 318 318 318 319 319 319 319 320 319 318 319 320 320 321 325 329 327 328 323 324 325 326 328
302 302 302 302 301 301 301 301 301 303 307 309 310 306 307 308 309 311 313 313 313 315 316 317 319 322 318 317 318 318 318 320 319 318 318 318 318 321 327 329 322 327 325 325 325 326 328 325 325 321 324 325 325 327
302 302 302 302 301 301 301 301 302 305 307 308 309 309 308 309 310 313 313 314 314 315 315 314 315 317 318 321 320 321 317 318 319 319 317 317 317 324 329 330 328 329 329 327 326 327 326 325 324 324 323 325 326 327
302 303 302 301 300 301 301 302 303 307 308 309 307 311 312 310 311 312 314 315 316 316 315 315 315 316 316 320 323 320 323 324 325 326 324 323 322 327 323 323 327 329 329 329 325 325 325 326 325 322 321 322 323 327
302 301 301 300 301 301 301 303 306 307 309 308 311 312 311 312 314 314 316 316 316 318 318 318 317 316 317 318 321 322 324 324 324 323 324 328 328 321 320 324 323 324 324 321 321 321 321 323 322 323 324 325 326 327
300 300 300 301 302 301 302 303 306 308 308 311 311 310 313 313 314 316 317 317 319 318 318 317 319 316 318 318 320 322 321 325 323 325 326 327 325 325 325 325 320 321 323 321 321 322 321 324 325 327 326 326 326 325
300 301 301 302 302 301 303 306 307 308 311 311 310 310 313 315 315 316 317 318 318 318 318 316 319 318 317 322 321 322 324 325 325 327 327 325 323 325 326 326 326 324 325 321 321 321 323 326 326 324 323 323 322 322
301 302 302 301 301 302 305 308 308 308 308 310 313 317 316 316 316 317 317 318 318 319 318 320 321 320 323 322 320 321 323 324 326 327 326 324 324 325 325 325 325 326 326 325 324 325 325 325 324 323 323 323 324 323
302 302 302 301 302 304 306 307 307 309 308 311 314 317 317 318 318 318 318 320 319 320 319 320 323 322 322 322 322 324 324 324 323 320 317 322 325 325 325 325 325 324 325 325 324 324 324 323 324 325 324 323 322 322
302 302 301 302 304 306 306 307 307 308 309 311 315 316 317 319 318 319 318 319 318 320 322 321 322 320 321 323 323 324 325 323 321 320 321 323 323 322 324 324 324 323 323 320 320 321 323 324 325 325 323 322 321 321
305 303 305 307 306 306 306 307 308 310 310 312 314 317 314 317 319 319 318 319 319 318 320 321 319 324 324 323 323 321 320 321 323 322 324 321 321 324 323 323 324 323 322 318 320 322 322 322 323 323 322 323 322 322
306 307 307 305 305 306 307 307 308 312 312 312 315 314 313 317 320 318 316 315 315 315 316 319 322 322 323 320 321 322 321 321 323 323 323 323 321 322 322 321 322 321 320 319 318 320 319 320 318 318 320 321 320 319
306 307 307 308 308 309 310 309 309 312 314 315 314 315 316 318 319 319 317 317 315 316 318 320 321 318 319 320 320 321 320 321 322 323 323 321 322 322 320 319 319 319 319 318 318 319 319 319 320 320 321 320 320 320
307 307 308 310 310 311 312 313 313 311 313 315 316 315 317 318 318 318 319 318 318 316 316 320 320 320 321 319 318 321 320 322 322 322 321 320 320 319 320 320 318 319 320 320 320 320 320 320 320 318 319 319 319 319
307 307 308 309 310 312 312 313 314 315 315 315 317 317 317 318 318 317 317 319 320 317 318 320 319 318 319 319 320 320 321 321 319 321 318 319 319 319 320 320 320 321 320 320 321 320 319 317 317 318 318 318 318 320
308 309 310 310 311 309 312 315 315 315 316 315 316 317 318 317 317 317 318 319 320 319 319 320 319 318 317 318 321 321 321 320 318 320 318 319 319 318 319 319 319 318 319 319 319 318 318 318 318 319 319 319 318 318
309 310 312 311 311 311 314 314 315 315 315 316 316 317 317 318 317 316 319 319 319 319 320 319 318 319 320 320 320 320 319 319 317 318 318 318 318 318 318 318 318 315 315 315 315 315 316 316 317 318 316 313 314 315
308 309 311 307 312 313 314 314 314 315 316 316 317 318 318 318 320 320 320 318 317 318 319 320 321 320 320 320 320 320 319 317 318 318 317 317 317 317 317 316 313 313 313 313 312 312 312 312 311 311 312 312 313 312
305 312 312 313 313 314 314 315 315 315 316 317 318 316 314 315 316 316 316 315 317 318 320 320 319 320 319 319 317 319 317 318 319 318 318 317 315 315 314 314 312 310 310 310 309 309 308 308 309 308 309 309 309 309
309 313 314 314 314 315 315 316 316 317 317 318 315 315 314 313 313 313 314 317 317 317 318 319 319 318 319 318 317 318 317 318 317 315 316 315 314 313 311 311 309 309 309 308 308 308 307 307 308 308 308 308 308 307
313 314 315 316 315 316 317 317 316 316 316 315 315 315 316 315 316 315 317 317 316 319 318 317 316 317 317 316 316 315 316 316 316 317 317 314 312 311 310 309 309 309 308 308 307 307 307 307 307 308 307 307 305 303
314 314 314 315 315 315 315 315 314 314 314 314 315 314 313 316 317 317 317 318 318 317 317 317 317 316 316 316 315 314 314 313 313 313 312 312 311 309 309 309 308 308 308 308 307 307 307 306 306 305 304 303 302 300
314 315 315 314 314 314 314 315 315 315 315 316 315 315 315 314 314 315 316 315 316 316 315 315 315 315 315 314 313 312 311 311 310 310 309 308 308 308 307 307 307 308 308 308 307 306 305 305 304 302 301 300 299 299
313 313 314 313 313 313 315 316 316 317 317 315 316 316 315 315 314 314 314 314 314 314 314 314 314 314 313 313 312 311 309 307 306 304 306 306 305 304 305 306 307 307 307 306 306 304 303 302 302 301 300 299 298 298
313 313 313 313 313 314 315 316 317 317 316 317 317 316 315 314 313 313 314 314 314 314 314 314 314 312 311 311 311 310 309 308 307 307 304 303 302 304 304 305 306 306 306 305 305 303 302 301 301 300 299 299 298 298
314 314 314 315 315 316 316 318 318 316 316 316 315 315 314 314 314 314 314 313 313 313 313 313 312 310 309 309 310 310 308 308 307 306 304 303 303 302 302 302 303 303 304 304 303 302 302 301 300 299 299 299 299 298
Wind_Speed
28 22 21 21 20 20 19 18 17 18 18 18 19 18 16 16 15 14 11 14 11 11 28 22 18 19 17 15 4 16 10 8 5 4 5 7 6 5 4 5 2 1 1 1 2 3 5 6 5 2 2 5 10 4
26 24 22 22 21 20 19 18 17 17 17 17 18 17 17 17 15 15 14 9 10 19 19 21 20 23 22 18 17 12 12 15 6 4 4 4 4 4 6 5 4 2 3 3 6 6 14 4 3 6 3 6 4 8
25 25 24 22 21 20 19 18 17 16 16 16 17 15 16 15 14 16 16 9 4 12 23 22 24 13 19 23 21 18 15 14 6 9 7 3 5 4 2 6 3 4 5 1 3 8 4 3 6 3 5 7 3 9
24 24 23 21 19 17 18 17 18 16 16 16 18 16 15 15 16 17 17 10 4 8 6 11 15 4 5 10 18 21 21 22 18 15 11 3 3 11 6 6 3 5 9 3 2 3 26 12 8 3 3 6 9 10
25 24 21 19 17 19 17 17 16 15 14 15 19 16 16 13 12 11 14 18 9 5 5 17 28 15 9 10 14 13 13 13 11 11 6 6 12 9 10 4 5 6 6 4 4 14 4 7 4 1 2 5 11 5
23 22 18 17 16 17 16 15 15 14 12 15 18 15 12 11 10 7 2 9 13 7 6 4 11 14 5 16 13 14 13 15 13 14 9 15 24 16 4 4 9 5 5 8 4 1 11 9 6 4 6 10 8 7
22 20 19 17 15 16 16 14 13 13 10 14 17 13 14 13 15 10 3 7 11 11 5 5 5 11 16 14 10 12 14 14 16 17 17 18 21 16 3 6 18 23 9 14 11 11 15 14 8 7 6 5 8 6
22 21 20 18 17 16 15 13 12 10 13 13 13 12 13 14 15 14 7 5 11 9 5 4 4 4 13 11 11 13 11 13 9 16 12 9 15 11 4 12 21 21 16 8 6 16 16 21 17 12 10 8 8 7
20 21 20 18 16 15 13 13 11 11 16 12 12 13 14 12 9 7 4 5 11 6 5 5 4 2 6 14 12 12 9 3 12 6 10 7 5 5 2 9 19 5 6 8 12 13 13 24 27 14 12 8 11 4
19 18 17 17 15 14 12 13 12 16 16 22 22 8 6 10 9 10 7 5 7 8 9 6 9 5 7 7 8 4 6 4 3 6 6 7 8 7 1 6 8 12 10 10 10 28 18 11 5 9 7 9 14 18
21 19 18 17 16 14 14 16 16 18 26 20 8 6 7 15 10 4 4 5 8 4 8 9 19 9 10 5 1 8 1 3 3 2 1 3 5 1 5 13 19 25 16 12 7 11 17 23 15 12 7 14 19 10
18 18 18 17 16 15 15 20 17 33 20 12 7 10 18 5 6 5 5 5 6 5 11 9 14 18 7 4 2 8 3 4 3 3 3 4 3 13 10 18 15 28 14 22 15 7 6 15 8 9 11 2 6 9
16 17 17 17 17 17 21 21 28 24 17 13 4 5 3 4 3 6 7 5 4 6 5 5 4 11 6 1 1 3 3 5 9 1 2 2 10 10 12 10 9 9 8 8 12 15 12 15 10 6 15 18 14 8
16 17 17 17 16 17 23 22 31 23 7 5 6 3 4 6 6 6 7 4 11 7 12 10 3 4 7 5 3 3 3 5 4 3 2 3 12 11 12 9 6 13 14 11 11 5 8 11 7 8 4 5 3 6
17 16 17 17 17 20 21 32 22 17 2 2 6 5 9 15 14 10 13 10 7 8 16 7 2 2 2 3 4 2 3 2 6 3 3 5 6 8 11 14 15 15 15 11 9 13 6 10 10 8 6 4 6 6
17 17 17 18 18 25 25 35 23 5 4 4 5 6 11 5 5 10 4 5 4 10 8 7 2 2 3 2 3 5 5 4 4 3 7 1 6 10 9 8 10 10 9 6 6 4 7 3 5 3 5 3 3 3
16 12 18 19 26 20 32 26 24 4 4 4 5 10 13 8 10 6 17 6 6 5 3 4 2 4 3 3 5 4 3 2 14 12 4 3 3 7 9 10 7 8 7 9 7 5 5 5 6 3 2 5 5 5
12 22 28 25 29 31 24 10 4 4 5 7 6 9 12 11 8 6 13 13 14 7 7 2 7 5 5 5 1 3 7 4 10 9 3 3 6 7 8 8 3 3 4 9 7 4 6 6 5 2 5 5 9 10
27 29 25 33 28 15 5 7 2 3 5 10 6 8 10 11 8 13 6 11 11 12 11 6 3 2 1 3 1 9 14 15 12 9 7 8 11 10 11 5 4 4 3 6 10 7 12 9 13 11 10 13 11 7
29 27 28 23 21 5 3 3 4 4 4 2 0 5 7 4 4 18 21 7 12 6 6 4 2 7 1 10 15 12 9 11 9 8 6 5 6 6 12 13 12 10 7 8 7 12 16 8 7 13 12 10 14 10
40 32 15 13 4 3 3 4 4 5 7 7 15 19 6 4 2 2 8 14 8 5 5 7 10 11 11 8 8 9 8 6 5 4 6 7 11 14 15 15 10 6 5 7 7 4 9 11 12 13 8 10 13 15
26 18 8 1 3 1 3 4 7 7 2 3 7 8 3 2 5 4 6 5 10 16 10 7 7 7 6 5 4 5 5 5 7 5 6 9 10 10 12 10 10 6 7 8 10 8 8 11 13 14 15 13 11 13
15 7 1 2 2 3 4 5 3 4 3 3 1 1 2 3 1 3 5 14 10 15 11 6 4 4 4 4 4 4 6 5 8 8 9 8 6 10 16 10 13 17 9 7 9 10 12 12 10 10 10 12 12 12
7 2 2 3 5 3 1 3 1 1 3 2 2 2 1 2 3 2 5 4 11 11 12 8 7 13 4 6 10 13 11 8 12 11 8 11 9 12 13 9 7 16 19 14 14 18 15 13 12 10 14 17 15 13
4 2 3 3 3 1 1 2 1 1 2 2 3 5 4 7 4 4 3 6 13 12 11 9 4 3 2 8 8 12 13 13 11 9 17 13 9 7 8 10 12 10 16 12 15 16 14 12 14 16 17 16 11 13
2 1 1 3 1 1 2 3 2 2 3 3 4 4 7 5 5 3 4 8 10 11 11 11 6 11 14 9 12 16 12 13 6 12 6 8 12 15 13 11 12 14 14 12 13 12 14 15 14 14 15 16 14 13
3 3 1 3 5 1 3 10 11 7 6 4 3 3 3 4 3 4 6 7 5 10 14 18 18 17 19 20 10 17 13 9 8 12 11 10 10 11 12 10 11 11 8 11 10 12 14 11 12 13 14 14 14 14
3 6 6 8 8 6 8 8 4 5 4 6 3 4 3 4 2 4 4 5 6 6 13 16 21 15 16 15 15 12 9 7 7 5 6 10 12 11 10 12 13 13 12 11 10 15 13 9 9 9 13 10 12 15
6 9 5 5 9 8 11 8 5 4 4 4 2 1 1 5 12 15 15 12 11 14 13 9 8 7 8 12 13 11 8 10 15 16 15 12 11 13 11 11 10 10 11 12 11 14 9 12 9 9 10 12 8 13
9 12 5 8 6 4 6 6 7 10 18 15 10 7 7 8 9 10 12 13 10 9 9 8 10 13 13 14 16 15 11 8 9 6 13 13 9 5 4 8 11 9 8 8 8 11 9 8 9 11 12 12 13 13
5 6 8 8 5 5 9 9 9 7 9 9 8 12 12 10 12 14 15 8 10 15 13 13 11 12 14 8 8 10 10 13 12 8 2 4 7 6 8 6 7 8 7 7 8 10 9 9 9 10 11 12 13 13
5 4 5 3 2 4 5 5 5 7 6 2 4 3 8 8 11 8 11 11 13 11 10 10 10 10 10 9 9 8 11 14 13 18 15 8 5 4 5 5 3 7 8 7 8 8 8 9 9 10 11 12 13 15
13 14 11 6 3 3 6 3 3 3 3 1 7 6 7 10 7 7 8 9 7 7 11 8 8 8 8 9 8 3 9 12 13 19 19 17 13 13 13 11 11 8 6 7 7 6 8 9 10 10 11 12 13 15
Wind_Direction
270 275 273 274 280 283 282 278 275 270 259 250 243 235 234 252 252 241 238 203 249 277 278 274 295 303 311 304 289 331 343 4 252 272 256 268 269 295 326 19 98 98 173 128 128 172 274 253 250 6 263 356 130 120
263 262 270 271 273 276 279 277 275 272 257 247 238 233 236 245 246 239 250 190 247 244 268 265 269 266 248 250 282 295 288 316 320 344 358 346 317 290 37 319 15 129 160 190 164 204 219 147 128 127 81 77 49 199
261 258 264 265 270 271 271 273 275 271 261 240 228 226 233 239 244 238 237 215 291 287 293 274 274 283 252 252 243 252 268 273 340 355 301 266 272 312 237 220 147 205 121 185 356 7 309 120 106 67 90 66 94 94
260 256 260 259 259 270 267 270 272 269 263 231 214 221 230 235 236 229 227 198 241 291 277 281 317 232 211 239 244 231 249 263 284 296 298 278 306 294 309 292 253 152 132 128 193 330 277 75 91 83 100 115 114 104
257 253 254 252 257 262 262 265 271 268 263 221 208 217 223 229 220 218 231 209 193 275 299 302 301 255 225 237 221 222 238 248 261 265 247 251 253 266 280 309 296 168 167 172 220 226 166 111 150 121 121 142 211 136
251 249 242 246 257 256 257 266 268 268 264 210 201 213 213 211 201 191 297 214 226 211 288 283 295 274 203 211 198 223 243 232 228 261 260 256 270 272 269 276 285 10 216 212 223 179 136 147 151 131 115 126 107 61
248 240 243 245 253 252 255 261 257 257 228 193 205 212 215 206 188 183 193 171 193 202 246 272 251 228 213 202 232 238 240 238 235 245 245 265 281 294 288 271 276 293 293 254 236 150 140 146 178 164 192 223 280 304
239 240 243 241 244 245 249 248 248 248 191 192 196 203 195 193 197 209 128 155 185 197 251 266 266 219 196 205 215 214 209 209 235 247 261 242 261 258 257 260 275 282 285 327 290 239 204 168 164 152 170 230 257 280
240 232 237 236 239 237 241 233 229 208 183 185 187 167 146 165 189 208 199 187 188 213 281 262 284 249 199 232 244 176 209 220 229 211 233 251 244 239 1 307 247 20 13 330 12 37 129 152 156 143 157 190 284 226
233 239 228 226 230 228 236 214 201 183 162 136 148 152 183 196 165 146 176 191 208 219 223 253 270 281 286 253 226 190 180 202 259 219 219 217 242 224 357 321 0 353 335 317 300 103 95 155 151 147 196 302 279 233
225 218 216 221 216 218 203 195 184 169 143 160 174 201 170 151 152 178 205 221 193 236 221 241 228 244 274 264 148 179 165 28 289 41 191 270 235 132 322 349 4 354 318 295 243 141 164 164 128 118 179 263 281 225
213 214 211 204 207 195 192 184 175 160 165 165 166 127 138 186 196 212 194 209 200 233 213 201 210 201 249 7 83 34 48 344 267 312 286 184 274 354 338 355 23 27 61 63 47 65 134 143 142 114 246 159 149 186
198 194 191 198 190 190 186 188 169 159 157 154 149 154 166 186 202 208 199 201 206 228 153 190 191 177 204 84 219 117 105 250 131 242 250 289 348 351 5 19 45 128 65 22 68 53 73 81 56 202 227 227 211 133
188 184 187 185 181 183 181 183 169 167 179 180 146 176 229 202 219 219 230 218 235 220 161 190 139 168 185 170 236 244 122 156 196 186 286 310 323 359 15 6 14 92 70 88 119 94 217 126 136 77 65 66 77 62
178 181 176 181 182 180 178 164 143 181 157 227 208 212 211 236 240 218 237 248 225 255 148 141 165 283 248 214 176 276 219 123 32 19 348 7 351 19 28 17 11 24 33 30 28 44 97 240 153 95 105 105 119 112
165 165 176 175 177 173 169 172 172 161 234 250 247 264 289 280 340 267 217 128 172 111 94 249 231 73 254 253 221 35 2 79 184 234 261 224 352 339 353 4 358 6 14 360 350 20 25 42 117 103 112 89 17 340
160 174 175 169 164 168 163 166 176 240 243 270 260 280 280 298 259 296 217 209 170 67 50 7 329 293 231 70 39 334 12 130 175 189 181 29 322 328 340 348 337 359 356 11 3 358 23 45 117 230 27 316 345 323
149 153 146 148 147 146 155 166 206 217 249 257 275 320 297 277 311 24 42 41 78 90 120 52 320 342 18 68 81 146 94 43 127 136 131 8 13 358 349 345 4 81 15 26 28 37 15 9 26 46 78 348 327 344
141 134 136 147 144 126 140 203 244 275 241 275 280 289 268 282 157 106 244 60 95 116 125 135 327 87 176 193 34 37 54 44 94 72 42 37 14 12 5 32 69 63 48 30 34 33 32 67 76 82 341 349 35 51
141 131 132 133 146 139 174 193 205 257 249 259 33 202 228 277 77 151 145 99 334 29 44 33 245 208 154 69 59 55 49 39 45 45 35 35 6 25 62 67 65 70 80 56 44 95 91 78 16 349 342 0 29 34
141 146 120 105 102 189 200 191 186 221 271 197 228 207 174 279 342 42 129 160 102 90 264 161 122 86 91 69 77 52 39 37 49 59 41 28 44 82 74 70 55 64 59 33 34 19 315 26 34 20 37 42 25 4
140 139 139 250 309 274 269 234 261 322 310 57 65 34 55 52 53 14 14 101 93 124 108 93 80 63 93 72 60 73 53 53 43 58 99 68 74 59 33 34 358 3 26 58 78 53 18 2 9 18 22 22 22 11
116 100 6 305 292 314 296 293 296 10 26 32 153 104 64 39 49 265 43 39 55 97 106 94 27 42 92 102 89 58 51 36 53 81 116 90 65 59 61 64 45 44 40 66 34 32 38 34 31 14 14 7 2 0
146 165 259 278 225 263 270 309 117 140 250 92 77 86 150 64 333 351 96 55 34 33 29 29 25 27 135 61 100 81 70 83 94 79 104 98 86 82 57 46 81 31 39 37 44 43 38 34 22 11 6 14 19 21
262 284 272 265 221 194 111 56 18 13 105 74 38 43 9 359 16 40 45 20 3 360 359 353 349 12 57 81 99 105 100 107 83 78 118 99 101 92 80 53 34 29 29 24 20 12 8 10 11 16 18 13 33 23
37 66 55 26 160 91 155 160 144 71 56 62 63 49 19 25 29 31 3 352 348 360 13 27 50 96 74 72 81 91 114 109 79 47 98 71 56 50 59 52 30 26 29 23 21 19 17 18 17 20 20 19 28 23
358 31 44 42 331 160 91 80 57 40 43 47 47 45 35 40 349 307 323 354 34 77 72 73 78 89 94 98 99 84 88 95 106 81 68 78 74 59 44 37 30 28 9 13 13 1 13 17 19 21 20 24 29 20
355 2 24 61 73 73 23 51 45 32 39 14 57 50 34 9 307 300 28 59 35 85 101 103 72 67 75 89 81 73 63 51 60 71 96 73 69 62 47 30 23 18 14 12 13 18 18 36 21 24 24 20 34 15
29 26 83 62 60 53 26 21 58 45 15 36 71 70 131 100 86 82 93 121 90 86 97 98 95 73 57 75 79 73 64 58 60 58 50 53 46 37 34 25 19 20 11 4 23 30 51 41 48 48 29 18 27 31
41 32 59 46 44 58 38 45 98 100 120 96 91 88 76 74 56 52 69 66 84 89 85 68 57 51 84 86 83 71 57 40 28 66 46 33 23 353 17 26 17 9 20 11 358 15 39 31 36 20 28 23 23 23
37 45 63 72 63 81 91 88 100 101 104 104 103 109 107 84 48 46 42 59 60 59 60 54 59 50 39 40 42 51 41 15 12 17 311 314 321 9 39 30 23 21 23 23 16 35 39 29 30 23 21 18 15 13
9 72 98 90 86 117 131 146 134 125 148 166 139 121 115 96 72 36 35 48 53 49 44 48 60 50 47 34 28 27 16 20 21 18 19 28 37 66 60 60 58 65 33 31 22 20 33 29 23 20 15 11 8 5
110 108 109 101 133 179 173 173 129 108 110 43 91 104 153 114 78 46 52 42 39 29 24 55 46 46 64 45 22 10 16 17 18 19 30 39 48 50 54 60 55 55 60 54 27 23 24 17 14 12 10 5 2 359